RH
77 70 66 85 68 58 49 40 38 33 35 38 62 88 100 100 96 99 98 89 88 82 74 93 91 100 93 90 94 87 78 77 72 64 65 27 26 31 33 31 30 27 28 26 28 41 47
60 62 54 80 80 75 63 56 57 53 36 37 33 34 37 59 73 71 70 70 58 83 98 98 92 75 79 96 100 100 92 92 64 58 76 35 24 33 34 33 31 33 31 30 30 34 37
39 41 40 65 81 75 73 76 84 71 70 65 52 36 33 38 38 36 37 29 26 26 43 66 97 88 83 98 91 91 81 65 39 43 73 36 26 33 34 37 34 35 35 38 40 42 44
36 30 27 28 34 42 43 46 46 75 65 79 88 78 62 47 40 40 38 38 48 52 31 24 25 77 94 84 81 75 62 41 33 32 56 37 21 32 34 36 33 32 33 32 31 31 36
28 27 28 22 29 29 28 30 34 35 36 42 55 46 55 62 78 71 58 47 35 41 47 38 36 34 62 98 94 57 34 29 32 34 45 41 19 29 33 32 32 30 34 30 30 29 29
24 23 22 26 30 27 22 22 32 30 33 33 34 33 31 40 47 48 53 76 76 55 46 43 36 36 32 95 98 46 32 28 33 35 46 45 17 24 28 26 28 30 33 32 33 29 26
52 30 30 61 59 29 20 21 20 21 24 29 30 36 42 37 39 33 34 36 46 67 48 46 43 40 42 68 92 46 34 27 32 32 46 48 17 18 26 26 26 29 28 30 33 27 26
35 28 29 32 47 50 38 37 31 27 23 20 20 25 36 46 44 37 38 35 29 38 60 46 40 51 68 85 88 38 30 25 31 31 36 49 17 18 22 23 24 24 22 26 28 25 25
50 42 33 38 38 46 48 45 43 42 46 43 40 31 26 28 34 33 41 35 30 30 35 77 56 52 52 53 66 34 26 24 25 25 38 50 18 16 22 23 26 24 24 26 28 26 24
28 37 45 40 48 49 44 46 47 35 38 55 58 44 43 44 31 29 32 33 33 31 25 80 92 63 49 46 60 33 24 23 19 20 46 42 19 17 20 22 25 26 30 28 30 29 24
30 34 37 32 41 50 70 63 68 73 74 62 51 51 60 58 42 46 41 35 34 31 29 66 73 65 52 43 48 35 25 22 28 22 49 35 20 17 18 20 23 25 24 25 26 25 24
39 43 39 40 52 63 81 85 92 93 87 75 54 70 65 62 66 48 44 45 39 30 37 45 49 60 48 56 44 36 30 22 36 36 48 28 19 17 19 22 23 22 23 23 22 21 23
61 85 50 66 98 100 93 98 77 46 44 59 53 51 62 72 91 72 65 55 46 38 44 51 52 45 47 53 58 37 34 29 29 54 46 26 20 18 19 20 21 22 23 23 23 24 30
51 36 40 87 99 71 48 48 48 48 43 46 40 63 57 78 100 84 75 54 31 38 48 48 51 52 46 54 72 50 40 32 33 36 32 26 24 22 20 21 21 21 24 30 37 42 37
47 46 64 82 72 48 44 60 62 59 44 56 58 74 73 63 65 79 92 67 64 58 40 48 41 50 52 51 60 92 43 46 34 32 32 32 28 27 24 25 27 30 37 56 45 42 45
56 44 79 96 58 62 56 48 46 53 41 72 78 98 100 94 87 82 91 95 100 95 94 66 60 39 38 47 55 85 78 46 48 40 34 31 28 29 28 31 38 51 63 67 68 62 60
38 29 30 50 71 85 58 60 57 55 76 97 69 91 100 100 100 100 99 100 100 100 93 70 66 51 38 44 53 52 93 75 52 55 53 40 38 37 40 46 55 62 60 65 68 67 86
58 50 60 65 86 94 89 80 71 61 65 74 66 62 67 68 96 63 95 100 91 90 98 71 62 72 58 45 40 53 51 95 99 56 57 63 56 50 52 60 65 70 76 83 95 100 100
65 91 100 100 100 100 97 98 92 96 86 82 82 86 67 77 63 94 75 77 95 100 85 69 69 85 60 62 45 41 49 50 97 100 90 70 55 60 57 66 74 93 100 98 96 90 74
100 100 100 100 100 100 100 94 100 99 98 100 95 92 100 96 87 81 76 87 98 94 94 88 74 90 97 95 70 39 48 48 57 89 100 100 94 63 50 52 57 64 78 88 93 84 94
97 95 87 84 86 76 76 99 100 100 100 100 100 100 100 99 99 90 99 97 99 100 90 91 79 86 69 65 79 67 43 44 40 54 78 100 100 100 99 81 57 51 52 60 67 77 80
80 78 95 95 87 93 93 82 92 100 100 100 100 100 100 100 100 100 97 97 100 94 75 74 61 63 52 48 45 67 44 37 40 41 52 66 90 100 100 100 100 90 67 68 65 65 70
72 77 91 98 100 100 100 100 88 99 100 97 95 100 100 100 99 99 99 98 99 94 63 45 36 33 38 35 31 36 40 31 30 35 42 52 68 74 87 100 100 100 100 99 96 93 96
80 66 71 96 100 100 100 100 100 100 100 95 100 100 86 96 82 92 94 91 64 50 30 23 20 16 15 18 21 21 20 18 19 26 35 44 52 62 66 90 100 100 100 100 100 100 100
67 62 76 80 92 100 100 100 100 100 100 100 95 91 80 74 71 86 69 45 30 21 16 13 11 12 12 12 12 13 14 13 16 26 31 45 49 67 76 73 96 100 100 100 100 100 100
58 65 65 84 94 99 100 100 100 100 94 96 85 76 81 74 77 53 33 17 14 12 11 11 12 12 12 11 11 13 14 14 14 14 26 45 52 68 100 100 87 100 100 100 100 100 100
48 59 60 59 91 92 90 84 92 95 94 88 87 67 52 52 35 20 13 11 10 11 11 12 12 12 13 12 12 13 13 15 14 15 16 30 57 99 100 98 84 100 100 100 100 100 100
51 57 51 53 55 47 57 65 66 75 84 78 65 49 32 19 14 12 9 10 11 11 11 12 12 13 13 13 13 13 13 14 14 16 17 21 56 100 100 100 100 100 100 100 100 100 100
46 48 31 28 18 18 24 40 52 60 55 42 37 23 15 10 9 8 9 10 11 12 12 13 13 14 14 14 14 13 13 14 14 15 17 22 36 100 100 100 99 86 100 100 100 100 100
Wind_Speed
15 17 14 15 13 14 14 10 12 12 11 15 24 29 34 38 37 36 37 35 36 38 38 38 38 39 40 42 38 37 35 32 33 33 27 28 29 24 18 14 9 6 4 1 2 2 3
15 17 15 14 15 15 14 15 17 16 12 12 13 14 16 21 27 30 32 31 32 33 34 35 35 36 41 40 38 39 40 37 36 35 31 31 33 30 24 19 15 11 10 7 5 4 6
14 14 17 15 13 13 17 16 17 20 18 16 18 18 15 15 17 19 21 24 28 32 35 39 38 37 34 34 36 36 38 38 34 36 36 34 36 36 31 27 21 18 13 12 10 9 10
23 17 13 16 21 24 25 21 22 22 25 25 23 21 22 22 21 20 23 24 26 29 32 34 40 42 38 38 38 41 40 35 33 35 39 38 38 40 35 34 28 25 20 18 15 15 15
28 26 23 25 26 19 21 26 27 30 32 31 31 33 31 28 28 32 31 29 27 29 32 35 36 40 44 41 37 38 35 35 38 39 43 43 42 44 40 40 36 33 30 25 22 20 22
24 25 23 26 29 30 31 28 32 31 28 34 38 38 37 35 35 36 36 35 35 34 35 36 37 34 39 41 40 37 37 38 39 42 47 48 47 46 48 43 37 35 35 32 32 26 25
35 34 33 32 30 28 29 29 30 32 36 37 36 37 41 39 39 39 39 39 40 39 38 36 37 33 34 41 42 39 39 39 41 44 49 53 50 47 52 42 41 39 37 36 35 31 29
33 35 34 36 36 35 33 33 33 32 34 35 36 38 39 42 45 44 43 41 41 38 38 38 36 33 35 38 43 40 39 40 42 46 49 55 51 53 49 48 47 44 42 40 38 35 34
35 35 34 36 36 36 40 39 40 40 40 41 39 38 42 45 48 47 48 50 48 41 39 47 40 35 35 40 40 42 40 40 43 46 50 55 52 52 50 49 48 47 44 44 42 40 38
39 40 41 41 40 39 40 44 43 46 47 44 48 50 53 47 44 45 49 50 46 48 39 45 47 44 39 35 38 42 40 37 37 44 50 53 52 54 53 52 52 49 49 48 48 46 43
44 47 44 45 46 45 45 46 46 48 49 50 52 50 50 52 45 43 45 45 44 46 38 52 53 49 42 37 35 42 41 36 38 40 50 54 55 55 55 54 52 51 53 51 52 52 48
43 47 41 45 46 49 53 48 50 48 52 53 52 53 54 53 50 47 44 43 49 48 44 52 52 51 43 40 38 39 41 37 34 41 52 55 56 56 56 55 55 54 55 55 55 54 51
40 45 44 43 46 47 50 50 54 57 60 56 55 53 54 58 59 56 53 51 49 49 47 53 57 53 51 43 41 41 42 39 36 44 53 55 55 58 57 57 56 56 57 56 55 55 51
43 42 45 44 42 51 55 57 58 59 63 62 64 57 56 58 62 60 60 61 53 48 52 54 57 58 52 55 47 46 45 46 46 48 53 53 54 57 58 59 59 58 58 57 57 57 57
46 51 46 48 56 59 62 59 64 64 69 64 64 63 57 56 59 64 65 64 63 65 62 60 57 60 64 60 56 52 52 52 54 56 60 60 58 62 62 63 62 60 58 63 61 61 61
61 62 55 55 63 65 68 66 71 70 76 64 62 62 60 69 68 64 68 68 71 68 72 70 68 59 64 67 66 61 58 58 60 63 66 64 63 65 65 65 63 64 65 65 66 65 65
75 75 74 70 66 67 70 72 77 76 70 65 72 70 73 72 68 71 70 71 73 74 77 76 73 65 64 70 72 70 64 65 68 69 72 72 72 70 71 69 72 70 68 71 73 72 71
76 78 72 68 70 71 74 79 81 76 71 68 67 68 68 73 68 66 66 73 71 73 73 82 79 78 71 74 75 80 75 74 75 77 78 79 78 76 76 76 77 75 74 76 78 79 77
81 78 73 71 76 80 84 79 74 69 73 73 73 70 71 75 71 72 75 72 77 78 81 79 80 80 83 76 78 79 81 82 85 83 84 85 83 83 79 81 80 82 84 84 86 84 76
73 75 77 83 85 90 89 89 79 81 80 82 81 78 80 84 79 81 82 81 81 81 85 86 84 85 85 86 88 79 84 88 90 93 92 91 89 87 85 88 89 89 89 90 92 89 84
89 91 92 92 92 93 94 90 86 85 86 87 85 84 88 83 83 88 91 92 88 88 89 90 91 96 98 93 97 97 91 92 95 95 98 101 97 93 92 92 93 92 92 94 94 90 96
102 100 95 95 95 95 95 97 92 91 95 94 94 93 94 95 97 95 96 97 101 102 99 97 99 104 106 106 106 102 101 95 90 103 102 103 104 101 97 96 97 97 96 95 95 95 94
100 95 95 95 98 102 99 93 94 95 100 102 104 104 104 99 102 105 100 98 99 106 108 110 107 106 109 112 109 105 106 104 104 100 110 106 104 104 100 99 102 101 94 99 100 98 99
108 108 108 106 109 109 107 105 103 108 108 109 107 109 111 106 106 106 103 104 107 110 108 102 95 88 88 88 88 92 96 98 98 99 100 109 105 104 101 101 103 94 96 99 100 100 100
116 121 117 118 118 114 113 110 110 112 115 113 113 116 117 107 105 101 105 112 111 104 94 85 81 76 77 77 75 75 79 81 83 93 98 100 103 102 106 104 103 99 96 97 99 99 101
122 117 119 120 121 122 119 118 114 118 118 114 115 114 111 109 101 110 112 106 97 89 81 77 72 70 72 70 66 66 72 73 77 83 92 99 100 102 104 106 105 99 98 98 99 101 101
125 123 125 125 124 124 122 117 118 117 116 117 112 111 109 105 109 107 98 92 85 77 71 69 68 67 68 67 67 68 68 71 73 74 88 97 100 103 109 112 107 106 103 103 105 103 100
126 128 129 126 125 121 120 119 115 114 113 110 107 109 108 105 95 90 85 79 74 70 65 64 65 66 65 69 70 71 69 73 72 72 79 92 102 105 111 114 111 109 109 109 110 109 108
133 134 125 122 116 116 116 112 109 109 105 102 105 107 99 90 79 77 72 69 65 62 60 60 61 63 65 67 70 72 71 71 74 72 75 86 101 110 115 113 114 113 112 112 112 110 110
Wind_Direction
259 268 270 265 256 268 283 297 302 315 308 286 272 267 265 269 269 270 275 282 283 280 278 274 277 272 272 272 268 268 266 264 266 263 252 234 233 228 224 224 214 215 231 257 311 343 40
264 273 265 275 255 258 260 278 295 304 304 307 305 297 286 281 276 276 274 276 277 281 280 280 275 276 273 269 269 268 268 268 267 255 238 234 230 225 220 222 220 227 233 232 245 286 314
309 311 274 271 267 264 265 280 281 281 284 290 294 290 288 282 280 290 295 294 289 286 284 280 277 279 275 275 271 269 272 270 264 249 232 231 226 225 225 226 227 230 229 240 254 269 290
351 348 344 329 295 295 291 287 274 273 281 289 287 281 277 280 283 288 297 299 302 303 297 296 285 274 274 274 275 277 276 264 260 249 232 228 226 225 227 229 234 237 234 241 252 268 276
352 344 339 333 329 318 317 312 305 292 278 276 279 285 281 281 282 284 289 295 299 305 310 307 301 283 267 272 275 277 269 271 265 251 237 225 226 227 226 233 236 238 239 245 254 267 275
345 339 329 327 330 332 325 321 322 310 300 299 293 282 279 279 277 282 284 287 292 297 306 311 307 291 266 265 273 269 270 275 270 250 239 225 225 227 230 231 237 240 242 248 256 268 271
340 340 334 333 331 330 317 332 330 321 308 301 298 297 284 283 282 279 279 284 288 292 298 304 312 295 272 267 272 268 270 275 272 251 239 228 224 230 232 232 237 239 249 254 255 264 269
330 329 331 327 323 322 330 332 334 333 335 327 308 300 295 288 285 283 279 279 283 287 296 298 301 301 282 273 277 270 272 277 269 252 237 228 226 229 234 235 240 244 247 252 254 262 267
318 320 318 320 321 317 315 315 321 323 327 326 328 322 322 318 292 285 284 286 276 276 288 292 293 293 292 284 277 269 273 278 266 249 233 226 227 232 236 238 239 242 248 251 255 262 267
321 315 312 314 313 311 314 308 311 316 316 319 319 319 319 317 309 298 289 286 283 273 274 281 287 286 288 286 274 271 274 276 261 245 228 226 227 231 234 239 241 244 249 252 256 261 267
314 315 307 309 305 308 306 304 301 306 309 314 314 314 310 309 307 294 296 294 290 280 275 277 279 279 281 285 270 270 273 278 256 248 229 227 228 231 236 239 244 245 249 253 257 261 264
302 306 303 304 302 303 304 299 301 306 309 310 309 306 306 307 297 298 292 292 290 292 289 281 277 271 274 280 271 264 269 274 261 243 230 229 231 234 237 241 245 247 250 253 258 262 263
302 303 299 302 303 307 310 307 307 311 315 307 307 306 304 299 296 291 292 295 295 293 283 286 285 277 267 266 270 260 260 261 259 240 234 234 236 239 241 243 246 248 251 254 257 261 261
306 304 298 293 304 306 308 309 306 313 314 312 305 301 300 294 287 286 287 291 296 290 280 278 280 279 271 264 260 256 252 254 248 241 239 242 243 243 243 244 247 250 252 255 256 259 261
310 313 299 290 301 305 307 307 309 308 313 307 305 303 299 286 293 284 280 282 285 286 283 282 277 272 275 268 255 254 249 249 248 245 242 243 245 245 243 244 247 250 253 254 258 261 263
313 312 299 289 296 302 304 306 310 309 312 302 302 295 292 296 294 283 281 280 278 282 278 281 283 273 266 268 257 248 247 246 247 247 246 244 242 243 244 244 247 249 252 256 259 259 262
310 310 307 300 290 297 304 305 309 309 303 297 301 298 293 293 285 284 285 280 279 276 275 277 280 278 268 261 260 252 245 243 245 246 247 246 244 242 246 247 248 251 254 257 259 262 263
309 305 303 296 295 296 299 303 306 306 300 296 300 299 292 293 283 280 277 276 276 277 281 279 277 275 272 263 254 256 248 246 244 244 246 246 246 246 247 248 252 254 256 258 260 260 260
301 298 299 296 295 297 302 302 302 298 295 297 295 294 297 297 289 285 283 278 271 272 277 279 280 279 272 264 260 253 252 249 246 246 246 247 247 247 249 252 255 257 258 259 261 261 262
294 297 298 298 299 300 303 301 298 297 294 295 296 296 293 293 287 282 283 281 278 277 275 274 272 273 274 270 264 254 247 248 245 245 248 249 248 248 248 249 252 255 256 259 261 264 265
297 299 300 300 302 304 301 295 294 292 294 292 293 292 291 290 285 283 280 281 272 271 271 270 270 268 268 266 265 264 254 248 248 245 246 248 249 251 250 250 251 252 254 257 260 262 263
301 301 301 301 302 301 300 298 292 289 290 293 295 291 290 290 287 285 280 277 272 272 273 272 272 269 268 267 264 259 259 254 247 245 245 247 247 250 251 253 252 252 254 257 260 260 263
300 300 299 298 300 300 297 295 292 293 292 292 292 292 291 290 286 286 281 276 274 274 275 278 277 273 271 266 263 259 257 257 254 250 243 246 246 248 247 252 252 253 257 258 259 261 263
297 297 296 296 296 298 297 295 292 291 292 294 293 291 290 291 290 288 281 277 278 279 282 280 276 272 265 262 258 257 255 253 251 246 243 242 246 248 248 250 251 253 254 256 259 261 263
295 295 294 295 294 296 295 294 292 290 289 290 291 290 292 291 291 287 283 282 283 283 281 278 273 268 263 259 256 255 254 253 250 245 242 240 242 248 250 250 251 252 255 257 257 258 259
293 291 293 293 293 292 292 291 292 290 289 289 291 292 291 289 289 285 285 285 283 281 277 273 268 265 262 259 256 254 253 252 249 245 241 240 239 243 246 249 250 250 253 255 256 257 258
289 288 291 290 291 291 290 290 289 290 289 289 291 290 289 289 286 287 285 282 279 275 272 269 266 262 259 258 257 252 250 251 250 246 241 238 237 241 244 248 250 250 252 253 254 256 258
285 289 289 289 289 288 287 288 289 290 290 289 289 289 288 288 286 284 281 278 275 272 270 267 264 261 258 257 257 254 250 250 249 247 243 238 236 239 242 243 247 249 251 253 256 258 258
286 287 287 288 291 290 290 290 290 290 289 290 289 289 289 288 286 283 278 275 273 270 268 266 262 259 257 255 256 255 252 249 249 248 247 241 235 237 241 245 249 250 251 252 255 257 260